Zurück zum Katalog

CZ-4C DEB

AktivLEO
NORAD 44618·DEBRIS·🇨🇳 China

Gestartet Apr 10, 2018 von Taiyuan Satellite Launch Center

Loading…

Nächste Überflüge (nächste 24 Stunden)

TLE

AktuellSource: Space-Track

Epoche: Sep 14, 2026, 11:40 UTC

1 44618U 18034K   26257.48658979 -.00000049  00000-0  57641-4 0  9998
2 44618  63.4626 286.3475 0264763 345.7320  13.6327 13.42053316388839

Verfolge CZ-4C DEB in Echtzeit mit AllMySat

Download on the App Store